Flag for Germany Weather past 2 weeks in Herten, North Rhine-Westphalia, Germany

Now
49 °F

Fog.


Feels Like: 49 °F
Forecast: 50 / 65 °F
Wind: 2 mph from South

Location: Essen

Current Time: Aug 21, 2014 at 8:44:39 AM

Latest Report: Aug 21, 2014 at 8:00 AM


Visibility: 2 mi

Pressure: 30.03 "Hg

Humidity: 97%

Dew point: 48 °F

Location of HertenLocation

Historic Weather in Herten — Graph

°F

Herten temperature yesterday

Maximum temperature yesterday: 64 °F (at 5:00 PM)
Minimum temperature yesterday: 48 °F (at 4:00 AM)
Average temperature yesterday: 54 °F

Past Weeks' High & Low Weather Summary

 TemperatureHumidityPressure
High78 °F (Aug 8, 1:00 PM)99% (Aug 16, 6:00 AM)30.10 "Hg (Aug 16, 6:00 AM)
Low47 °F (Aug 21, 7:00 AM)41% (Aug 6, 3:00 PM)29.58 "Hg (Aug 10, 8:00 PM)
Average60 °F80%29.86 "Hg
* Reported Aug 6 8:00 AM — Aug 21 8:00 AM, Herten, Weather by CustomWeather, © 2014

Note: Actual official high and low records may vary slightly from our data, if they occured in-between our weather recording intervals... More about our weather records

Advertising

Herten weather history for previous 24 hours

 ConditionsComfort  
Time TempWeatherWind HumidityBarometerVisibility
8:00 AM
Aug 21
49 °FFog.2 mph97%30.03 "Hg2 mi
7:00 AM47 °FFog.2 mph99%30.03 "Hg2 mi
6:00 AM48 °FFog.2 mph97%30.03 "Hg2 mi
5:00 AM49 °FFog.3 mph96%30.02 "Hg3 mi
4:00 AM49 °FFog.3 mph96%30.03 "Hg3 mi
3:00 AM50 °FClear.3 mph96%30.03 "Hg3 mi
2:00 AM49 °FFog.1 mph97%30.03 "Hg2 mi
1:00 AM50 °FFog.2 mph97%30.02 "Hg3 mi
12:00 AM51 °FPassing clouds.3 mph91%30.03 "Hg8 mi
11:00 PM
Aug 20
51 °FOvercast.1 mph92%30.03 "Hg11 mi
10:00 PM51 °FOvercast.2 mph96%30.03 "Hg17 mi
9:00 PM51 °FLow clouds.1 mph95%30.02 "Hg19 mi
8:00 PM52 °FRain. Low clouds.3 mph90%30.03 "Hg2 mi
7:00 PM56 °FOvercast.5 mph77%30.00 "Hg25 mi
6:00 PM63 °FOvercast.3 mph51%29.97 "Hg43 mi
5:00 PM64 °FPartly sunny.3 mph47%29.98 "Hg43 mi
4:00 PM63 °FScattered clouds.3 mph48%29.98 "Hg37 mi
3:00 PM63 °FSunny.3 mph50%29.99 "Hg37 mi
2:00 PM62 °FScattered clouds.3 mph55%30.00 "Hg34 mi
1:00 PM60 °FScattered clouds.3 mph58%30.00 "Hg34 mi
12:00 PM59 °FSunny.5 mph63%30.01 "Hg19 mi
11:00 AM58 °FSunny.3 mph69%30.02 "Hg16 mi
10:00 AM55 °FSunny.3 mph76%30.01 "Hg14 mi
9:00 AM52 °FSunny.3 mph83%30.01 "Hg15 mi
8:00 AM49 °FSunny.3 mph86%30.00 "Hg14 mi
Weather by CustomWeather, © 2014

See weather overviewHow to use our weather pages